[[{"header":{"parameterUnit":"m.s-1","parameterCategory":2,"la1":30.2991,"la2":30.254,"lo1":-89.0895,"lo2":-89.0444,"dy":0.0017,"dx":0.0017,"nx":28,"ny":28,"refTime":"2025-04-16T21:00:00:Z","depth":"0","parameterNumber":2,"parameterNumberName":"U-component_of_CURRENTS"},"data":[0,0,0,0,0,0,0,0,0,0,0,0,0,0,0,0,0,0,0,0,0,0,0,0,0,0,0,0,0,0,0,0,0,0,0,0,0,0,0,0,0,0,0,0,0,0,0,0,0,0,0,0,0,0,0,0,0,0,0.1763,0.1763,0,0.1762,0.1762,0.1762,0.175,0.175,0.1749,0.1749,0.1748,0.1748,0.1749,0,0,0,0,0,0,0,0,0,0,0,0,0,0.178,0.1779,0.1763,0.1763,0.1763,0.1762,0.1762,0.1762,0.175,0.175,0.1749,0.1749,0.1748,0.1748,0.1749,0,0,0,0,0,0,0,0,0,0,0,0,0,0.1775,0.1779,0.1763,0.1757,0.1756,0.1762,0.1762,0.1762,0.175,0.175,0.1749,0.1749,0.1748,0.1748,0.1749,0.176,0,0,0.175,0.175,0,0,0,0,0,0,0,0,0.1775,0.1775,0.1758,0.1757,0.1757,0.1756,0.1768,0.1762,0.175,0.1753,0.1749,0.1749,0.1751,0.1751,0.1752,0.176,0.176,0.175,0.175,0.175,0.175,0,0,0,0,0,0,0,0.1776,0.1775,0.1763,0.1758,0.1757,0.1763,0.1762,0.1767,0.1755,0.1752,0.1752,0.1751,0.1751,0.1752,0.1752,0.176,0.175,0.175,0.175,0.1751,0.1811,0.1812,0,0,0,0,0,0,0.1775,0.1775,0.1763,0.1763,0.1765,0.1763,0.1761,0.1757,0.1754,0.1754,0.1752,0.1751,0.1751,0.1751,0.1752,0.178,0.175,0.1751,0.1751,0.1809,0.1811,0.1813,0,0,0,0,0,0,0.1775,0.1774,0.1763,0.1769,0.1768,0.1763,0.1758,0.1757,0.1758,0.1754,0.1753,0.1754,0.1751,0.1751,0.1764,0.1779,0.1751,0.1751,0.1808,0.181,0.1812,0.1827,0,0,0,0,0,0,0.1776,0.1774,0.1772,0.1769,0.1768,0.1768,0.1758,0.1757,0.1758,0.1757,0.1755,0.1755,0.175,0.1764,0.1765,0.1779,0.1751,0.1806,0.1809,0.1811,0.1825,0.1829,0.1833,0,0,0,0,0,0.1776,0.1774,0.1772,0.1771,0.1765,0.1768,0.1769,0.1763,0.1759,0.1762,0.1766,0.1755,0.1781,0.1765,0.1766,0.1781,0.1805,0.1808,0.1811,0.1823,0.1828,0.1833,0,0,0,0,0,0,0.178,0.1773,0.177,0.1766,0.1768,0.1766,0.1768,0.1767,0.1771,0.1771,0.1766,0.1767,0.1786,0.1786,0.1768,0.1809,0.1794,0.1797,0.1803,0.1808,0.1812,0.1805,0.1752,0,0,0,0,0,0.1781,0.1777,0.1775,0.1773,0.1774,0.1773,0.1774,0.1772,0.1775,0.1776,0.1774,0.1783,0.1801,0.1805,0.1815,0.1832,0.1847,0.1847,0.1851,0.1854,0.1852,0.191,0.1919,0.1823,0.1823,0.1823,0,0,0.1781,0.1778,0.1775,0.1774,0.1774,0.1776,0.1772,0.1776,0.1779,0.1776,0.1781,0.1795,0.181,0.1831,0.184,0.1831,0.1888,0.1858,0.1861,0.1857,0.1915,0.1924,0.1932,0.1825,0.1824,0.1824,0,0,0.1781,0.1778,0.1775,0.1779,0.1781,0.1782,0.1784,0.1785,0.1786,0.1803,0.1804,0.1829,0.1846,0.1859,0.187,0.1907,0.191,0.1913,0.1924,0.1981,0.1989,0.1996,0.2014,0.2023,0.1913,0.1913,0.1913,0,0.1783,0.1775,0.1777,0.1779,0.1782,0.1784,0.1787,0.1792,0.1797,0.181,0.1808,0.186,0.1863,0.1901,0.1908,0.1915,0.1936,0.1899,0.1985,0.1993,0.2,0.2017,0.2027,0.1914,0.1914,0.1913,0.1913,0,0.178,0.1777,0.1778,0.1778,0.1786,0.1788,0.1797,0.1808,0.1817,0.1829,0.1872,0.189,0.1926,0.1932,0.1926,0.1979,0.1973,0.1985,0.1968,0.2011,0.2026,0.2036,0.1915,0.1915,0.1915,0.1914,0,0,0.1771,0.1774,0.1773,0.1772,0.1785,0.1788,0.1808,0.1828,0.1844,0.1871,0.1908,0.194,0.1962,0.1976,0.1983,0.2017,0.2074,0.2016,0.2019,0.2026,0.2179,0.2092,0.2094,0.2106,0.2108,0.211,0.2163,0,0.1765,0.1763,0.177,0.1772,0.1772,0.1792,0.1808,0.1834,0.1862,0.1897,0.1942,0.1977,0.1976,0.1998,0.2039,0.2072,0.2103,0.2056,0.2144,0.2145,0.2057,0.2104,0.2023,0.2057,0.2173,0.2175,0.2176,0,0.1754,0.1754,0.1753,0.1766,0.1769,0.1775,0.181,0.1826,0.1886,0.1915,0.1977,0.2012,0.2071,0.2064,0.2157,0.2132,0.2154,0.2172,0.2175,0.2094,0.2077,0.2038,0.2071,0.1994,0.2191,0.2189,0.2188,0,0.1735,0.174,0.1735,0.1738,0.1758,0.1769,0.1784,0.1833,0.1857,0.1928,0.1971,0.2052,0.21,0.2162,0.2206,0.2194,0.2297,0.2293,0.2233,0.2226,0.2172,0.2156,0.2133,0.2357,0.2357,0.2356,0.2356,0,0.1719,0.1714,0.1722,0.1719,0.1723,0.1749,0.1769,0.1801,0.1863,0.1905,0.1978,0.2033,0.213,0.2201,0.2232,0.2262,0.2333,0.2237,0.2242,0.2172,0.2156,0.2097,0.2037,0.2358,0.2358,0.2358,0.2357,0,0.1695,0.1698,0.1691,0.1705,0.171,0.1713,0.1749,0.1768,0.1833,0.1899,0.1928,0.204,0.2122,0.2196,0.2288,0.2284,0.2235,0.231,0.2194,0.2183,0.2019,0.1961,0.1834,0.1799,0.2248,0.2247,0.2245,0,0.1681,0.1672,0.1672,0.1666,0.1668,0.1678,0.1687,0.1744,0.1774,0.1898,0.1931,0.2033,0.2097,0.219,0.2196,0.2231,0.2168,0.2158,0.211,0.1994,0.1937,0.183,0.1804,0.205,0.2047,0.2044,0.2043,0,0.1655,0.165,0.1644,0.1628,0.1626,0.1628,0.1653,0.1678,0.1759,0.1826,0.1915,0.1977,0.2052,0.2049,0.2076,0.2087,0.2009,0.2105,0.2045,0.1816,0.1641,0.1616,0.2005,0.2021,0.2023,0.2025,0.2026,0.2027,0.1633,0.1617,0.1602,0.1583,0.1578,0.1575,0.1577,0.1624,0.1674,0.1766,0.1847,0.1904,0.194,0.1954,0.1937,0.1835,0.1822,0.1779,0.1732,0.1644,0.1556,0.1861,0.184,0.1841,0.1842,0.1843,0.1844,0,0.1597,0.1579,0.1559,0.1532,0.151,0.1526,0.1547,0.1553,0.16,0.1679,0.1744,0.1765,0.1733,0.1734,0.1649,0.1519,0.1456,0.144,0.1306,0.1316,0.1658,0.1597,0.1449,0.1449,0.1449,0.1449,0.1449,0.1449,0.1578,0.1541,0.1522,0.1468,0.1455,0.1435,0.1444,0.1463,0.15,0.1527,0.1537,0.1565,0.1573,0.1428,0.1285,0.1247,0.113,0.0984,0.1008,0.1273,0.1303,0.1331,0.1262,0.1046,0.1046,0.0653,0.0649,0.0647]},{"header":{"parameterUnit":"m.s-1","parameterCategory":2,"la1":30.2991,"la2":30.254,"lo1":-89.0895,"lo2":-89.0444,"dy":0.0017,"dx":0.0017,"nx":28,"ny":28,"refTime":"2025-04-16T21:00:00:Z","depth":"0","parameterNumber":3,"parameterNumberName":"V-component_of_CURRENTS"},"data":[0,0,0,0,0,0,0,0,0,0,0,0,0,0,0,0,0,0,0,0,0,0,0,0,0,0,0,0,0,0,0,0,0,0,0,0,0,0,0,0,0,0,0,0,0,0,0,0,0,0,0,0,0,0,0,0,0,0,0.0313,0.0313,0,0.0297,0.0297,0.0297,0.0276,0.0276,0.0276,0.0275,0.0244,0.0243,0.0243,0,0,0,0,0,0,0,0,0,0,0,0,0,0.0306,0.0306,0.0313,0.0313,0.0313,0.0297,0.0297,0.0297,0.0276,0.0276,0.0276,0.0275,0.0244,0.0243,0.0243,0,0,0,0,0,0,0,0,0,0,0,0,0,0.0301,0.0306,0.0313,0.0302,0.03,0.0297,0.0297,0.0296,0.0276,0.0276,0.0276,0.0275,0.0244,0.0243,0.0242,0.0244,0,0,0.024,0.0239,0,0,0,0,0,0,0,0,0.0301,0.0301,0.0303,0.0302,0.0301,0.0289,0.0283,0.0279,0.0276,0.0285,0.0275,0.0275,0.0258,0.0256,0.0253,0.0243,0.0242,0.024,0.0239,0.0239,0.0238,0,0,0,0,0,0,0,0.0301,0.0301,0.0306,0.0303,0.0302,0.029,0.0289,0.0282,0.0273,0.0284,0.0283,0.0282,0.0257,0.0254,0.0252,0.0241,0.024,0.0239,0.0238,0.0238,0.0237,0.0238,0,0,0,0,0,0,0.0307,0.0302,0.0307,0.0306,0.0301,0.0291,0.0289,0.0293,0.0273,0.027,0.0282,0.0281,0.0256,0.0253,0.0251,0.0263,0.0239,0.0238,0.0237,0.0237,0.0237,0.0238,0,0,0,0,0,0,0.0307,0.0307,0.0307,0.0304,0.0303,0.0291,0.0295,0.0293,0.0289,0.0273,0.0269,0.0282,0.0255,0.0252,0.025,0.0261,0.0237,0.0237,0.0236,0.0237,0.0238,0.0281,0,0,0,0,0,0,0.0307,0.0308,0.0311,0.0304,0.0303,0.031,0.0295,0.0292,0.029,0.0288,0.0271,0.0267,0.0255,0.0251,0.0249,0.026,0.0236,0.0235,0.0236,0.0237,0.0279,0.0283,0.0287,0,0,0,0,0,0.0306,0.0315,0.0311,0.0312,0.0309,0.031,0.0309,0.0298,0.029,0.0293,0.0282,0.0268,0.0256,0.0251,0.0248,0.0259,0.0235,0.0236,0.0237,0.0277,0.0282,0.0287,0,0,0,0,0,0,0.0312,0.0313,0.0309,0.0317,0.0315,0.0307,0.0309,0.0302,0.0295,0.0292,0.0275,0.0271,0.0273,0.026,0.0256,0.0262,0.0243,0.0244,0.0274,0.0279,0.0283,0.0301,0.0235,0,0,0,0,0,0.0316,0.0322,0.032,0.0326,0.0327,0.0318,0.0317,0.0311,0.0304,0.0301,0.029,0.0279,0.0276,0.0273,0.0266,0.0269,0.0262,0.0274,0.0278,0.0281,0.0294,0.03,0.0306,0.0242,0.0242,0.0242,0,0,0.0318,0.032,0.0323,0.0327,0.0325,0.0335,0.0317,0.0318,0.0328,0.0299,0.0307,0.0292,0.028,0.0285,0.0285,0.0276,0.0293,0.0283,0.0286,0.0297,0.0302,0.0308,0.0314,0.0243,0.0242,0.0242,0,0,0.0331,0.0331,0.0342,0.0346,0.0347,0.0345,0.0348,0.0342,0.0342,0.0348,0.033,0.0328,0.0318,0.0315,0.0313,0.0335,0.0314,0.0327,0.0362,0.0367,0.0373,0.0377,0.0365,0.0369,0.0329,0.0329,0.0329,0,0.0334,0.035,0.0345,0.0359,0.0367,0.0353,0.037,0.037,0.0364,0.037,0.0356,0.0357,0.0338,0.0356,0.0359,0.0345,0.0338,0.0345,0.0373,0.0378,0.0382,0.0369,0.0372,0.0331,0.0331,0.0331,0.033,0,0.0359,0.0371,0.0379,0.0395,0.0401,0.0412,0.0416,0.0422,0.0418,0.0417,0.0431,0.0414,0.0417,0.0406,0.0388,0.0409,0.0389,0.0378,0.0363,0.0391,0.0375,0.0377,0.0334,0.0333,0.0333,0.0332,0,0,0.0367,0.0392,0.0394,0.0412,0.0422,0.0434,0.0453,0.047,0.0493,0.0484,0.0516,0.05,0.049,0.0487,0.0465,0.0464,0.0474,0.0434,0.0433,0.0426,0.0474,0.0465,0.0467,0.0467,0.0468,0.0468,0.0447,0,0.0388,0.0424,0.0429,0.0465,0.0486,0.0488,0.0513,0.0525,0.0533,0.0559,0.0549,0.0568,0.0523,0.053,0.0522,0.0494,0.0485,0.048,0.0445,0.0444,0.0436,0.0472,0.0537,0.0525,0.0449,0.0449,0.045,0,0.0412,0.0435,0.0473,0.0513,0.0523,0.0543,0.0585,0.0607,0.0633,0.0641,0.0654,0.0647,0.0651,0.0611,0.0581,0.058,0.0531,0.0501,0.0499,0.0482,0.0442,0.0486,0.0532,0.0564,0.0453,0.0453,0.0453,0,0.0429,0.0468,0.0501,0.0514,0.0554,0.0576,0.06,0.0629,0.0664,0.0699,0.0734,0.0725,0.0744,0.0692,0.0625,0.0606,0.0588,0.0554,0.0497,0.0495,0.0541,0.0542,0.0622,0.0531,0.0531,0.0531,0.0531,0,0.0453,0.0481,0.0514,0.0535,0.0586,0.0604,0.0662,0.0684,0.0734,0.0798,0.0782,0.0836,0.0768,0.0749,0.0663,0.0598,0.0617,0.0517,0.0499,0.0555,0.0557,0.0578,0.0556,0.053,0.053,0.0531,0.0531,0,0.0467,0.0486,0.0531,0.0577,0.0596,0.0634,0.0704,0.0751,0.0793,0.0882,0.0904,0.0926,0.0906,0.0821,0.0744,0.0662,0.06,0.0552,0.0613,0.0603,0.0572,0.0548,0.0544,0.0572,0.0492,0.0492,0.0492,0,0.0479,0.0501,0.0559,0.0591,0.0613,0.0672,0.0719,0.0773,0.0835,0.0947,0.1001,0.1013,0.104,0.092,0.0786,0.0649,0.0614,0.0602,0.0576,0.0599,0.056,0.0523,0.0545,0.0646,0.0647,0.0648,0.0649,0,0.0501,0.0517,0.0555,0.0616,0.0667,0.0737,0.0813,0.0877,0.0968,0.1062,0.1177,0.1209,0.1114,0.1039,0.0847,0.0739,0.0646,0.0614,0.0643,0.0697,0.066,0.067,0.0613,0.0657,0.0656,0.0656,0.0655,0.0655,0.0516,0.0542,0.0585,0.0644,0.0707,0.0798,0.0876,0.0985,0.1114,0.1286,0.1298,0.139,0.1289,0.105,0.0909,0.0753,0.0688,0.071,0.0678,0.0639,0.0679,0.0627,0.0646,0.0645,0.0644,0.0644,0.0643,0,0.053,0.0558,0.0612,0.0687,0.0757,0.0793,0.0937,0.1044,0.1223,0.1388,0.15,0.1554,0.1403,0.1224,0.1,0.0877,0.0821,0.0808,0.081,0.0828,0.0807,0.0832,0.0891,0.089,0.089,0.089,0.089,0.089,0.0537,0.0578,0.0603,0.0707,0.077,0.0897,0.0991,0.117,0.1326,0.1582,0.1709,0.1787,0.1743,0.1278,0.1058,0.0981,0.0948,0.0874,0.0848,0.0877,0.0867,0.0857,0.0881,0.0949,0.0949,0.0932,0.0931,0.0931]}],[{"header":{"parameterUnit":"m.s-1","parameterCategory":2,"la1":30.2991,"la2":30.254,"lo1":-89.0895,"lo2":-89.0444,"dy":0.0017,"dx":0.0017,"nx":28,"ny":28,"refTime":"2025-04-16T21:00:00:Z","depth":"2","parameterNumber":2,"parameterNumberName":"U-component_of_CURRENTS"},"data":[0,0,0,0,0,0,0,0,0,0,0,0,0,0,0,0,0,0,0,0,0,0,0,0,0,0,0,0,0,0,0,0,0,0,0,0,0,0,0,0,0,0,0,0,0,0,0,0,0,0,0,0,0,0,0,0,0,0,0.1721,0.1721,0,0.1721,0.1721,0.1721,0.1712,0.1712,0.1711,0.1711,0.1713,0.1714,0.1714,0,0,0,0,0,0,0,0,0,0,0,0,0,0.1735,0.1734,0.1721,0.1721,0.1721,0.1721,0.1721,0.1721,0.1712,0.1712,0.1711,0.1711,0.1713,0.1714,0.1714,0,0,0,0,0,0,0,0,0,0,0,0,0,0.1731,0.1734,0.1721,0.1716,0.1716,0.1721,0.1721,0.1721,0.1712,0.1712,0.1711,0.1711,0.1713,0.1714,0.1714,0.1724,0,0,0.1715,0.1716,0,0,0,0,0,0,0,0,0.1731,0.1731,0.1717,0.1717,0.1716,0.1716,0.1727,0.1722,0.1712,0.1713,0.1711,0.1711,0.1715,0.1715,0.1716,0.1724,0.1724,0.1715,0.1716,0.1716,0.1716,0,0,0,0,0,0,0,0.1732,0.1731,0.1721,0.1717,0.1717,0.1722,0.1721,0.1726,0.1716,0.1713,0.1713,0.1713,0.1715,0.1716,0.1716,0.1724,0.1715,0.1716,0.1716,0.1716,0.1776,0.1777,0,0,0,0,0,0,0.1731,0.1731,0.1721,0.1721,0.1723,0.1722,0.1721,0.1716,0.1716,0.1716,0.1713,0.1712,0.1715,0.1715,0.1716,0.1746,0.1716,0.1716,0.1717,0.1775,0.1776,0.1778,0,0,0,0,0,0,0.1731,0.173,0.1721,0.1726,0.1725,0.1722,0.1717,0.1717,0.1719,0.1716,0.1715,0.1717,0.1715,0.1715,0.1729,0.1745,0.1717,0.1717,0.1773,0.1775,0.1777,0.1794,0,0,0,0,0,0,0.1731,0.173,0.1729,0.1726,0.1725,0.1726,0.1718,0.1717,0.172,0.1719,0.1719,0.1719,0.1714,0.1728,0.1729,0.1745,0.1717,0.1771,0.1774,0.1776,0.1792,0.1796,0.18,0,0,0,0,0,0.1732,0.1731,0.1729,0.1728,0.1723,0.1727,0.1727,0.1723,0.1721,0.1724,0.1728,0.1719,0.1745,0.173,0.173,0.1747,0.177,0.1773,0.1776,0.179,0.1795,0.18,0,0,0,0,0,0,0.1736,0.173,0.1728,0.1725,0.1727,0.1725,0.1728,0.1727,0.1733,0.1733,0.173,0.173,0.1751,0.175,0.1733,0.1774,0.1759,0.1762,0.1769,0.1774,0.1778,0.1771,0.1718,0,0,0,0,0,0.1738,0.1734,0.1733,0.1731,0.1733,0.1732,0.1734,0.1733,0.1736,0.1738,0.1738,0.1747,0.1764,0.1769,0.1779,0.1797,0.1811,0.1812,0.1816,0.182,0.1817,0.1874,0.1882,0.1787,0.1787,0.1787,0,0,0.1738,0.1735,0.1733,0.1732,0.1733,0.1736,0.1732,0.1737,0.1741,0.1739,0.1745,0.1759,0.1773,0.1795,0.1805,0.1795,0.1853,0.1824,0.1826,0.1821,0.1878,0.1887,0.1895,0.1789,0.1789,0.1789,0,0,0.1739,0.1737,0.1735,0.1739,0.1742,0.1742,0.1745,0.1746,0.1749,0.1766,0.1768,0.1793,0.181,0.1823,0.1834,0.187,0.1874,0.1877,0.1888,0.1944,0.1952,0.196,0.1978,0.1987,0.1878,0.1878,0.1878,0,0.1742,0.1735,0.1737,0.1739,0.1742,0.1746,0.1749,0.1754,0.176,0.1773,0.1773,0.1824,0.1827,0.1865,0.1872,0.1878,0.19,0.1864,0.1949,0.1957,0.1964,0.1981,0.199,0.1879,0.1879,0.1879,0.1879,0,0.1739,0.1737,0.1739,0.1739,0.1747,0.175,0.1759,0.177,0.1781,0.1793,0.1836,0.1854,0.189,0.1896,0.189,0.1942,0.1937,0.1948,0.1932,0.1974,0.199,0.1999,0.1881,0.188,0.188,0.188,0,0,0.1732,0.1735,0.1734,0.1734,0.1747,0.175,0.177,0.1789,0.1806,0.1834,0.1871,0.1903,0.1925,0.1938,0.1947,0.1979,0.2036,0.198,0.1982,0.199,0.214,0.2053,0.2054,0.2069,0.2071,0.2072,0.2126,0,0.1727,0.1725,0.1732,0.1734,0.1734,0.1754,0.177,0.1795,0.1824,0.1859,0.1903,0.1939,0.1939,0.1961,0.2002,0.2033,0.2064,0.2019,0.2105,0.2106,0.2018,0.2064,0.1875,0.19,0.2135,0.2137,0.2138,0,0.1716,0.1717,0.1716,0.1729,0.1732,0.1739,0.1774,0.1789,0.1847,0.1876,0.1939,0.1973,0.2032,0.2026,0.2117,0.2092,0.2115,0.2132,0.2136,0.2053,0.2037,0.19,0.1908,0.2154,0.2153,0.2151,0.215,0,0.1698,0.1704,0.17,0.1703,0.1722,0.1734,0.1749,0.1797,0.1821,0.1891,0.1934,0.2013,0.2062,0.2122,0.2164,0.2153,0.2252,0.225,0.2191,0.2184,0.2036,0.2013,0.2313,0.2313,0.2313,0.2313,0.2313,0,0.1684,0.168,0.1689,0.1685,0.1691,0.1716,0.1736,0.1768,0.1828,0.187,0.1942,0.1996,0.2092,0.216,0.2189,0.2217,0.2287,0.2194,0.22,0.2035,0.2011,0.2243,0.2234,0.2315,0.2315,0.2314,0.2314,0,0.1661,0.1665,0.1659,0.1673,0.1678,0.1682,0.1719,0.1737,0.1802,0.1866,0.1896,0.2005,0.2084,0.2155,0.2244,0.2239,0.2275,0.2263,0.204,0.2017,0.2159,0.2151,0.2208,0.2205,0.2203,0.2201,0.22,0,0.1647,0.164,0.1642,0.1636,0.1639,0.165,0.1659,0.1715,0.1745,0.1866,0.1898,0.1998,0.2054,0.2141,0.213,0.2157,0.2232,0.1997,0.1937,0.2152,0.2153,0.2148,0.2142,0.1749,0.1744,0.174,0.1737,0,0.1623,0.162,0.1614,0.16,0.1599,0.1602,0.1627,0.165,0.173,0.1794,0.1879,0.1933,0.1987,0.192,0.1936,0.193,0.1977,0.1912,0.2226,0.1797,0.1722,0.1722,0.1732,0.17,0.1704,0.1706,0.1708,0.171,0.1603,0.1588,0.1575,0.1557,0.1552,0.1549,0.155,0.1592,0.1637,0.1703,0.1786,0.1793,0.1796,0.1712,0.1662,0.1611,0.1756,0.1688,0.1701,0.1717,0.1647,0.1572,0.1506,0.1509,0.1511,0.1513,0.1514,0,0.1565,0.1551,0.1533,0.1507,0.1481,0.1503,0.152,0.151,0.1545,0.158,0.1618,0.1473,0.1408,0.1412,0.1265,0.1259,0.1246,0.1216,0.1186,0.1223,0.1256,0.1161,0.0892,0.089,0.0889,0.0887,0,0,0.1546,0.1508,0.149,0.1435,0.1427,0.14,0.1405,0.14,0.14,0.1352,0.1312,0.1367,0.1386,0.1135,0.1086,0.0966,0.1093,0.0923,0.1423,0.1426,0.1457,0.1527,0.1423,0,0,0,0,0]},{"header":{"parameterUnit":"m.s-1","parameterCategory":2,"la1":30.2991,"la2":30.254,"lo1":-89.0895,"lo2":-89.0444,"dy":0.0017,"dx":0.0017,"nx":28,"ny":28,"refTime":"2025-04-16T21:00:00:Z","depth":"2","parameterNumber":3,"parameterNumberName":"V-component_of_CURRENTS"},"data":[0,0,0,0,0,0,0,0,0,0,0,0,0,0,0,0,0,0,0,0,0,0,0,0,0,0,0,0,0,0,0,0,0,0,0,0,0,0,0,0,0,0,0,0,0,0,0,0,0,0,0,0,0,0,0,0,0,0,0.0221,0.0221,0,0.0204,0.0204,0.0204,0.0186,0.0186,0.0186,0.0186,0.0156,0.0155,0.0154,0,0,0,0,0,0,0,0,0,0,0,0,0,0.0215,0.0215,0.0221,0.0221,0.0221,0.0204,0.0204,0.0204,0.0186,0.0186,0.0186,0.0186,0.0156,0.0155,0.0154,0,0,0,0,0,0,0,0,0,0,0,0,0,0.0209,0.0215,0.0221,0.0211,0.021,0.0204,0.0204,0.0204,0.0186,0.0186,0.0186,0.0185,0.0156,0.0155,0.0154,0.0153,0,0,0.0151,0.0151,0,0,0,0,0,0,0,0,0.0209,0.0209,0.0212,0.0211,0.021,0.0198,0.0191,0.0186,0.0186,0.0194,0.0186,0.0185,0.0169,0.0167,0.0164,0.0152,0.015,0.0151,0.0151,0.015,0.015,0,0,0,0,0,0,0,0.021,0.0209,0.0213,0.0212,0.0211,0.0199,0.0198,0.019,0.0182,0.0193,0.0192,0.0192,0.0168,0.0165,0.0163,0.015,0.0151,0.015,0.015,0.0149,0.0146,0.0146,0,0,0,0,0,0,0.0215,0.021,0.0214,0.0213,0.021,0.02,0.0198,0.0201,0.0183,0.018,0.0192,0.0191,0.0166,0.0164,0.0162,0.0174,0.015,0.0149,0.0149,0.0145,0.0146,0.0146,0,0,0,0,0,0,0.0215,0.0216,0.0215,0.0212,0.0211,0.02,0.0203,0.0201,0.0199,0.0182,0.0179,0.0193,0.0166,0.0163,0.016,0.0172,0.0149,0.0148,0.0145,0.0145,0.0146,0.019,0,0,0,0,0,0,0.0215,0.0216,0.022,0.0212,0.0211,0.0217,0.0204,0.0201,0.02,0.0198,0.0182,0.0179,0.0166,0.0162,0.0159,0.017,0.0147,0.0144,0.0145,0.0146,0.0188,0.0192,0.0196,0,0,0,0,0,0.0215,0.0223,0.022,0.022,0.0217,0.0217,0.0216,0.0207,0.02,0.0203,0.0193,0.0179,0.0166,0.0162,0.0158,0.017,0.0144,0.0145,0.0146,0.0186,0.0191,0.0195,0,0,0,0,0,0,0.0221,0.0222,0.0218,0.0226,0.0224,0.0215,0.0217,0.021,0.0204,0.0202,0.0185,0.0181,0.0184,0.017,0.0166,0.0171,0.0153,0.0153,0.0184,0.0189,0.0193,0.021,0.0146,0,0,0,0,0,0.0225,0.0231,0.0228,0.0234,0.0236,0.0227,0.0226,0.022,0.0214,0.0211,0.02,0.019,0.0186,0.0182,0.0174,0.0177,0.0169,0.0182,0.0186,0.0189,0.0201,0.0204,0.0209,0.015,0.015,0.015,0,0,0.0228,0.0229,0.0232,0.0236,0.0233,0.0243,0.0226,0.0227,0.0237,0.0208,0.0217,0.0202,0.0189,0.0193,0.0193,0.0184,0.02,0.0191,0.0194,0.0204,0.0206,0.0211,0.0217,0.0151,0.015,0.015,0,0,0.024,0.0241,0.0252,0.0255,0.0256,0.0253,0.0257,0.0251,0.0251,0.0257,0.024,0.0237,0.0227,0.0223,0.0219,0.024,0.022,0.0233,0.0267,0.027,0.0275,0.0279,0.0269,0.0272,0.0235,0.0235,0.0235,0,0.0244,0.0259,0.0254,0.0267,0.0275,0.0262,0.0278,0.0278,0.0272,0.0278,0.0266,0.0264,0.0246,0.0261,0.0264,0.025,0.0243,0.0251,0.0276,0.028,0.0284,0.0272,0.0275,0.0237,0.0237,0.0237,0.0237,0,0.0267,0.0279,0.0287,0.0302,0.0309,0.0319,0.0322,0.0328,0.0326,0.0324,0.0337,0.0319,0.0321,0.0311,0.0292,0.0311,0.0293,0.028,0.0266,0.0293,0.0278,0.0281,0.0241,0.024,0.0239,0.0239,0,0,0.0277,0.0299,0.0303,0.032,0.0329,0.034,0.0359,0.0374,0.0396,0.0388,0.0418,0.0401,0.0392,0.0388,0.0367,0.0364,0.0372,0.0335,0.0334,0.0328,0.0371,0.0363,0.0364,0.0364,0.0365,0.0365,0.0346,0,0.0298,0.0331,0.0336,0.0371,0.0391,0.0392,0.0416,0.0426,0.0434,0.0458,0.0447,0.0465,0.0423,0.043,0.0421,0.0391,0.0382,0.0378,0.0342,0.0341,0.0335,0.0369,0.0343,0.0325,0.0349,0.0349,0.0349,0,0.0321,0.0343,0.0379,0.0417,0.0426,0.0445,0.0485,0.0506,0.0529,0.0537,0.0549,0.0541,0.0544,0.0506,0.0474,0.0474,0.0427,0.0396,0.0394,0.0378,0.0339,0.0303,0.0328,0.0353,0.0353,0.0352,0.0352,0,0.0338,0.0375,0.0408,0.042,0.0457,0.0478,0.0501,0.0528,0.0561,0.0594,0.0627,0.0616,0.0635,0.0582,0.0516,0.0498,0.0477,0.0444,0.0391,0.0389,0.0357,0.0351,0.042,0.042,0.042,0.042,0.0421,0,0.0362,0.039,0.0421,0.0441,0.0491,0.0507,0.0563,0.0584,0.063,0.0691,0.0675,0.0725,0.0657,0.0635,0.0551,0.0488,0.0504,0.041,0.0393,0.0369,0.0365,0.0381,0.0377,0.042,0.042,0.042,0.042,0,0.0377,0.0395,0.0438,0.0482,0.0501,0.0538,0.0606,0.065,0.069,0.0775,0.0796,0.0814,0.0792,0.0707,0.0629,0.055,0.0476,0.0441,0.0413,0.0394,0.0372,0.037,0.0388,0.0388,0.0387,0.0387,0.0387,0,0.0388,0.0411,0.0467,0.0498,0.052,0.0577,0.0623,0.0674,0.0733,0.0839,0.089,0.0899,0.0918,0.0798,0.0653,0.0515,0.0488,0.0399,0.0363,0.0392,0.0373,0.0371,0.037,0.0326,0.0326,0.0325,0.0325,0,0.041,0.0427,0.0463,0.0523,0.0574,0.0641,0.0715,0.0775,0.0862,0.095,0.1058,0.1082,0.0972,0.0837,0.0643,0.0535,0.0419,0.0385,0.0436,0.0344,0.0334,0.0315,0.0316,0.032,0.0321,0.0321,0.0321,0.0321,0.0425,0.045,0.0493,0.0552,0.0613,0.0701,0.0776,0.0874,0.0996,0.1126,0.1147,0.1168,0.1011,0.0752,0.058,0.0389,0.0415,0.0324,0.0325,0.0327,0.0329,0.032,0.0303,0.0303,0.0303,0.0304,0.0304,0,0.0435,0.0468,0.052,0.0595,0.0659,0.07,0.0836,0.0919,0.108,0.1166,0.1245,0.1071,0.0919,0.0725,0.0449,0.0305,0.027,0.0231,0.022,0.0226,0.0231,0.0227,0.0174,0.0173,0.0173,0.0172,0,0,0.0442,0.0481,0.0504,0.0607,0.0675,0.0792,0.0881,0.1021,0.1109,0.1192,0.1193,0.1163,0.0957,0.0723,0.0512,0.035,0.0316,0.0299,0.0419,0.0438,0.0444,0.0299,0.0303,0,0,0,0,0]}],[{"header":{"parameterUnit":"m.s-1","parameterCategory":2,"la1":30.2991,"la2":30.254,"lo1":-89.0895,"lo2":-89.0444,"dy":0.0017,"dx":0.0017,"nx":28,"ny":28,"refTime":"2025-04-16T21:00:00:Z","depth":"4","parameterNumber":2,"parameterNumberName":"U-component_of_CURRENTS"},"data":[0,0,0,0,0,0,0,0,0,0,0,0,0,0,0,0,0,0,0,0,0,0,0,0,0,0,0,0,0,0,0,0,0,0,0,0,0,0,0,0,0,0,0,0,0,0,0,0,0,0,0,0,0,0,0,0,0,0,0.0996,0.0996,0,0.1026,0.1026,0.1026,0.1059,0.106,0.106,0.1061,0.1099,0.1099,0.11,0,0,0,0,0,0,0,0,0,0,0,0,0,0.0963,0.0963,0.0996,0.0996,0.0997,0.1026,0.1026,0.1027,0.1059,0.106,0.106,0.1061,0.1099,0.1099,0.11,0,0,0,0,0,0,0,0,0,0,0,0,0,0.0982,0.0963,0.0996,0.1017,0.102,0.1026,0.1026,0.1027,0.1059,0.106,0.1061,0.1061,0.1098,0.1099,0.11,0.1086,0,0,0.1102,0.1102,0,0,0,0,0,0,0,0,0.0981,0.0983,0.1014,0.1016,0.1019,0.1041,0.1029,0.1047,0.1059,0.1043,0.1061,0.1062,0.108,0.1082,0.1084,0.1088,0.109,0.1102,0.1102,0.1103,0.1103,0,0,0,0,0,0,0,0.098,0.0982,0.1006,0.1014,0.1017,0.1025,0.1028,0.1032,0.1055,0.1044,0.1047,0.1052,0.1082,0.1083,0.1085,0.109,0.1102,0.1102,0.1103,0.1103,0.1168,0.1169,0,0,0,0,0,0,0.0978,0.0981,0.1005,0.1007,0.1003,0.1025,0.1029,0.1032,0.1055,0.106,0.1051,0.1053,0.1082,0.1085,0.1087,0.1142,0.1103,0.1103,0.1104,0.1166,0.1168,0.1169,0,0,0,0,0,0,0.0977,0.098,0.1004,0.0996,0.1,0.1024,0.1028,0.1032,0.1059,0.1061,0.1066,0.1077,0.1083,0.1086,0.1116,0.1141,0.1104,0.1104,0.1165,0.1167,0.1169,0.1207,0,0,0,0,0,0,0.0976,0.0979,0.0992,0.0996,0.1,0.1023,0.1027,0.1032,0.106,0.1064,0.1084,0.1087,0.1084,0.1115,0.1117,0.1141,0.1105,0.1163,0.1166,0.1168,0.1204,0.121,0.1215,0,0,0,0,0,0.0974,0.0983,0.0992,0.0996,0.1013,0.1024,0.1027,0.1046,0.1061,0.1074,0.1094,0.1088,0.1132,0.1117,0.1118,0.1143,0.1162,0.1165,0.1168,0.1201,0.1208,0.1214,0,0,0,0,0,0,0.0977,0.0988,0.0997,0.101,0.1025,0.103,0.1048,0.106,0.1085,0.1098,0.11,0.1104,0.1141,0.1138,0.1121,0.1171,0.1148,0.1151,0.1173,0.1179,0.1185,0.118,0.1105,0,0,0,0,0,0.0982,0.0994,0.1004,0.1018,0.1027,0.1043,0.1055,0.1068,0.1085,0.1098,0.1113,0.1132,0.1149,0.1162,0.1173,0.1197,0.1199,0.1216,0.1222,0.1226,0.1225,0.1266,0.1275,0.1179,0.1179,0.1179,0,0,0.0988,0.0996,0.1004,0.102,0.1034,0.1047,0.1053,0.1078,0.1094,0.1097,0.1134,0.1152,0.116,0.119,0.1206,0.1194,0.1253,0.123,0.1234,0.123,0.127,0.128,0.1288,0.1181,0.118,0.118,0,0,0.0995,0.1013,0.1023,0.1037,0.1062,0.1068,0.1081,0.1102,0.1122,0.1156,0.1164,0.1198,0.1225,0.1234,0.1241,0.1283,0.1281,0.1295,0.1318,0.1359,0.1367,0.1374,0.1377,0.1385,0.1297,0.1297,0.1297,0,0.1006,0.1015,0.103,0.1043,0.1058,0.108,0.1095,0.1112,0.1143,0.1166,0.1178,0.1239,0.1244,0.1277,0.1292,0.1295,0.131,0.1291,0.1366,0.1373,0.1379,0.1381,0.1389,0.1299,0.1299,0.1299,0.1299,0,0.1011,0.103,0.104,0.1061,0.1079,0.1098,0.1119,0.115,0.1183,0.1204,0.1263,0.128,0.132,0.1327,0.1322,0.1373,0.1364,0.1368,0.1347,0.1391,0.139,0.1397,0.1303,0.1302,0.1301,0.1301,0,0,0.1003,0.1037,0.1043,0.1057,0.1092,0.1103,0.1141,0.1176,0.1207,0.1257,0.1302,0.134,0.137,0.1379,0.1387,0.1413,0.1464,0.1414,0.1415,0.1412,0.1539,0.1428,0.1425,0.1493,0.1495,0.1497,0.1515,0,0.1006,0.1029,0.1048,0.1076,0.1089,0.1126,0.1155,0.1196,0.1238,0.1287,0.1331,0.1378,0.1383,0.1414,0.1447,0.1462,0.1488,0.1457,0.15,0.15,0.1393,0.1431,0.1502,0.152,0.1521,0.1522,0.1523,0,0.1,0.1018,0.1045,0.1084,0.1095,0.112,0.1178,0.1208,0.1278,0.1317,0.1384,0.1421,0.1474,0.1473,0.1537,0.1525,0.1538,0.1543,0.1545,0.1432,0.1403,0.1469,0.1536,0.1535,0.1534,0.1533,0.1532,0,0.0974,0.1013,0.1036,0.1049,0.1097,0.1129,0.1163,0.1228,0.126,0.1345,0.1386,0.1461,0.1506,0.1551,0.1579,0.1572,0.1635,0.1625,0.1533,0.1524,0.1601,0.1593,0.1672,0.1672,0.1672,0.1672,0.1672,0,0.0954,0.0975,0.103,0.1041,0.1076,0.1121,0.117,0.1216,0.1287,0.1321,0.1407,0.1444,0.1535,0.1583,0.1599,0.1585,0.1662,0.1536,0.1528,0.1614,0.1608,0.1605,0.1597,0.1672,0.1672,0.1672,0.1672,0,0.0917,0.0953,0.0981,0.1041,0.1064,0.1093,0.1167,0.1195,0.1274,0.1323,0.1356,0.1453,0.1509,0.1572,0.1631,0.1593,0.1597,0.1574,0.1649,0.1645,0.1448,0.1442,0.1459,0.1455,0.1452,0.1449,0.1447,0,0.0896,0.0908,0.0974,0.0993,0.1024,0.1076,0.1105,0.1183,0.1204,0.1309,0.1316,0.1411,0.1464,0.146,0.1533,0.1552,0.1539,0.1522,0.1489,0.1438,0.143,0.1429,0.1427,0.1442,0.1442,0.1441,0.144,0,0.0855,0.089,0.0914,0.0953,0.0988,0.1009,0.1055,0.106,0.1138,0.1228,0.125,0.1287,0.134,0.1387,0.1419,0.1431,0.1522,0.149,0.1496,0.1464,0.1419,0.1413,0.1415,0.1429,0.1431,0.1432,0.1432,0,0.0831,0.0836,0.0874,0.0899,0.0934,0.092,0.0954,0.0972,0.1006,0.1113,0.112,0.1222,0.1318,0.1324,0.1353,0.1358,0.1332,0.1282,0.1298,0.131,0.1256,0.1176,0.1105,0,0,0,0,0,0.08,0.0796,0.0814,0.0821,0.0847,0.0865,0.0904,0.0936,0.1013,0.0995,0.1052,0.1096,0.114,0.1198,0.1174,0.1281,0.1335,0.1245,0.1284,0.137,0.1383,0.1333,0,0,0,0,0,0,0.0777,0.0794,0.0791,0.0749,0.074,0.0748,0.0769,0.0819,0.0809,0.0906,0.0942,0.1025,0.1092,0.115,0.1156,0.1171,0.1168,0.1313,0.131,0.1363,0.1375,0.1384,0.1338,0,0,0,0,0]},{"header":{"parameterUnit":"m.s-1","parameterCategory":2,"la1":30.2991,"la2":30.254,"lo1":-89.0895,"lo2":-89.0444,"dy":0.0017,"dx":0.0017,"nx":28,"ny":28,"refTime":"2025-04-16T21:00:00:Z","depth":"4","parameterNumber":3,"parameterNumberName":"V-component_of_CURRENTS"},"data":[0,0,0,0,0,0,0,0,0,0,0,0,0,0,0,0,0,0,0,0,0,0,0,0,0,0,0,0,0,0,0,0,0,0,0,0,0,0,0,0,0,0,0,0,0,0,0,0,0,0,0,0,0,0,0,0,0,0,0.0012,0.0012,0,0.0001,0.0,0.0,-0.001,-0.001,-0.001,-0.001,-0.0035,-0.0036,-0.0037,0,0,0,0,0,0,0,0,0,0,0,0,0,0.0009,0.0009,0.0012,0.0012,0.0012,0.0001,0.0,0.0,-0.001,-0.001,-0.001,-0.001,-0.0035,-0.0036,-0.0037,0,0,0,0,0,0,0,0,0,0,0,0,0,0.0005,0.0009,0.0012,0.0006,0.0005,0.0001,0.0,0.0,-0.001,-0.001,-0.001,-0.001,-0.0035,-0.0036,-0.0037,-0.0041,0,0,-0.004,-0.004,0,0,0,0,0,0,0,0,0.0005,0.0005,0.0007,0.0006,0.0006,-0.0003,-0.001,-0.0014,-0.001,-0.0005,-0.001,-0.001,-0.0025,-0.0027,-0.003,-0.0042,-0.0043,-0.004,-0.004,-0.0041,-0.0041,0,0,0,0,0,0,0,0.0005,0.0005,0.0007,0.0007,0.0006,-0.0001,-0.0002,-0.0011,-0.0015,-0.0005,-0.0006,-0.0006,-0.0026,-0.0029,-0.003,-0.0044,-0.004,-0.004,-0.0041,-0.0041,-0.0052,-0.0052,0,0,0,0,0,0,0.0009,0.0005,0.0007,0.0006,0.0006,-0.0001,-0.0002,-0.0001,-0.0015,-0.0017,-0.0006,-0.0006,-0.0027,-0.0029,-0.0031,-0.0024,-0.0041,-0.0041,-0.0042,-0.0052,-0.0052,-0.0052,0,0,0,0,0,0,0.0009,0.001,0.0008,0.0006,0.0006,-0.0001,0.0001,-0.0001,-0.0001,-0.0015,-0.0017,-0.0005,-0.0027,-0.003,-0.0034,-0.0026,-0.0042,-0.0043,-0.0053,-0.0052,-0.0052,-0.0018,0,0,0,0,0,0,0.0009,0.001,0.0012,0.0007,0.0006,0.0009,0.0001,-0.0001,-0.0001,-0.0002,-0.0015,-0.0017,-0.0028,-0.0032,-0.0035,-0.0027,-0.0043,-0.0053,-0.0052,-0.0052,-0.002,-0.0017,-0.0014,0,0,0,0,0,0.0009,0.0013,0.0012,0.0012,0.0009,0.0009,0.0008,0.0002,-0.0001,0.0001,-0.0006,-0.0017,-0.0031,-0.0033,-0.0036,-0.0028,-0.0053,-0.0053,-0.0052,-0.0021,-0.0017,-0.0014,0,0,0,0,0,0,0.0011,0.0012,0.0011,0.0014,0.0014,0.0008,0.0009,0.0005,0.0001,-0.0,-0.0013,-0.0016,-0.0017,-0.0028,-0.003,-0.003,-0.0044,-0.0044,-0.0019,-0.0016,-0.0013,-0.0003,-0.0044,0,0,0,0,0,0.0014,0.0017,0.0016,0.0019,0.002,0.0015,0.0014,0.0012,0.0007,0.0005,-0.0003,-0.0012,-0.0017,-0.002,-0.0028,-0.0029,-0.004,-0.0026,-0.0023,-0.0021,-0.0015,-0.0024,-0.0022,-0.005,-0.005,-0.005,0,0,0.0014,0.0016,0.0017,0.002,0.0018,0.0026,0.0015,0.0016,0.0024,0.0003,0.001,-0.0002,-0.0015,-0.0014,-0.0015,-0.0022,-0.002,-0.002,-0.0018,-0.0013,-0.0024,-0.0021,-0.0018,-0.0049,-0.0049,-0.0049,0,0,0.0021,0.0021,0.0028,0.0031,0.0033,0.0032,0.0035,0.0033,0.0034,0.0038,0.0026,0.002,0.0012,0.0006,0.0001,0.0014,-0.0005,0.0009,0.0032,0.0022,0.0025,0.0027,0.0014,0.0014,0.0011,0.0011,0.0011,0,0.0022,0.0032,0.0029,0.0038,0.0045,0.0039,0.005,0.0052,0.0049,0.0053,0.0046,0.0039,0.0024,0.0028,0.0031,0.0021,0.001,0.0021,0.0027,0.0028,0.003,0.0016,0.0016,0.0012,0.0012,0.0012,0.0012,0,0.0035,0.0044,0.0049,0.0062,0.0067,0.0075,0.0081,0.0087,0.0088,0.0087,0.0093,0.0076,0.0074,0.0065,0.0052,0.0055,0.0043,0.0031,0.002,0.0035,0.0019,0.0018,0.0015,0.0014,0.0014,0.0013,0,0,0.0036,0.0055,0.0058,0.007,0.0082,0.0089,0.0106,0.0119,0.0134,0.0129,0.0147,0.0132,0.0123,0.0117,0.01,0.0087,0.0082,0.0065,0.0064,0.0055,0.0059,0.0065,0.0065,0.0071,0.0071,0.0071,0.0043,0,0.0048,0.0071,0.0078,0.0104,0.0118,0.0125,0.0144,0.0154,0.016,0.0175,0.0163,0.0172,0.0144,0.0147,0.0131,0.0096,0.0083,0.0091,0.0043,0.0042,0.0049,0.0066,0.0072,0.0042,0.0042,0.0042,0.0042,0,0.0061,0.0076,0.0102,0.0132,0.014,0.0157,0.0187,0.0205,0.0221,0.0227,0.0231,0.0223,0.0214,0.0189,0.0143,0.0149,0.011,0.0078,0.0076,0.0073,0.0048,0.0024,0.0041,0.0041,0.0041,0.0041,0.0041,0,0.0064,0.0094,0.0117,0.0127,0.0159,0.0177,0.0198,0.022,0.0243,0.0265,0.0283,0.0267,0.0271,0.0221,0.0164,0.0153,0.011,0.0086,0.0054,0.0054,0.004,0.0038,0.0055,0.0055,0.0055,0.0055,0.0055,0,0.0074,0.0093,0.0123,0.0137,0.0174,0.0193,0.0234,0.0252,0.0286,0.0321,0.0315,0.0337,0.028,0.0251,0.0184,0.0126,0.0127,0.0066,0.0052,0.0054,0.0054,0.0039,0.0038,0.0054,0.0054,0.0054,0.0055,0,0.0072,0.0091,0.012,0.0159,0.0176,0.0204,0.0261,0.0291,0.0324,0.0371,0.0385,0.039,0.0364,0.0301,0.0224,0.0162,0.0097,0.0073,0.0088,0.0074,0.0038,0.0039,0.0034,0.0034,0.0034,0.0034,0.0034,0,0.0072,0.0086,0.0132,0.0156,0.0177,0.0223,0.0259,0.0305,0.034,0.0403,0.0427,0.0431,0.0423,0.033,0.0251,0.014,0.0116,0.0071,0.0047,0.0052,0.0038,0.0038,0.0039,0.0035,0.0035,0.0035,0.0035,0,0.0069,0.0086,0.011,0.0159,0.02,0.0249,0.0304,0.0338,0.04,0.0427,0.0473,0.0446,0.0423,0.0345,0.027,0.0181,0.0094,0.0071,0.007,0.0047,0.0052,0.0039,0.0039,0.0035,0.0035,0.0035,0.0035,0,0.0065,0.0079,0.0114,0.016,0.021,0.0267,0.03,0.0357,0.0402,0.0473,0.0484,0.0473,0.0466,0.0366,0.0291,0.0217,0.0183,0.0127,0.0122,0.0121,0.0152,0.0171,0.0187,0,0,0,0,0,0.0061,0.0079,0.0116,0.0171,0.0223,0.0259,0.0327,0.0361,0.0423,0.0458,0.0477,0.0461,0.0389,0.0361,0.029,0.0268,0.0153,0.0177,0.0081,0.0037,0.0036,0.0058,0,0,0,0,0,0,0.0057,0.0086,0.0108,0.0174,0.0216,0.028,0.0328,0.0373,0.0396,0.0447,0.0415,0.0418,0.0349,0.0433,0.0283,0.0263,0.0185,0.0151,0.0149,0.0037,0.0037,0.0036,0.0059,0,0,0,0,0]}]]